logo tempoitalia

Diretta Meteo Port Aransas, Stati Uniti (USA)lunedì 31 agosto ore 01:35

Mappa
Sereno 29 °C Nuvoloso 24 Ore: T.min 28 T.max 32
Ponente Sud-Est Km/h 11.1 Punto di rugiada: 26 °C Umidità: 83% Visibilità: 10 Km
Il sole sorge alle: 07:06 Il sole tramonta alle: 19:50
31 Agosto 2026 01:35 tempo osservato: Nuvoloso Nuvoloso 29 83 1015 vento: Nord SE 11.1
31 Agosto 2026 01:15 tempo osservato: Nuvoloso Nuvoloso 29 83 1015 vento: Nord SE 11.1
31 Agosto 2026 00:55 tempo osservato: Nuvoloso Nuvoloso 29 83 1015 vento: Nord SE 13
31 Agosto 2026 00:35 tempo osservato: Sereno Sereno 29 83 1015 vento: Nord SE 13
31 Agosto 2026 00:15 tempo osservato: Sereno Sereno 29 83 1015 vento: Nord SE 11.1
30 Agosto 2026 23:55 tempo osservato: Sereno Sereno 29 83 1015 vento: Nord SE 11.1
30 Agosto 2026 23:35 tempo osservato: Sereno Sereno 29 83 1015 vento: Nord SE 13
30 Agosto 2026 23:15 tempo osservato: Nuvoloso Nuvoloso 29 83 1015 vento: Nord E/SE 13
30 Agosto 2026 22:55 tempo osservato: Nuvoloso Nuvoloso 29 83 1015 vento: Nord SE 13
30 Agosto 2026 22:35 tempo osservato: Sereno Sereno 30 74 1015 vento: Nord SE 18.5
30 Agosto 2026 22:15 tempo osservato: Sereno Sereno 30 74 1014 vento: Nord SE 16.7
30 Agosto 2026 21:55 tempo osservato: Sereno Sereno 30 74 1014 vento: Nord SE 14.8
30 Agosto 2026 21:35 tempo osservato: Sereno Sereno 30 74 1014 vento: Nord SE 16.7
30 Agosto 2026 21:15 tempo osservato: Sereno Sereno 30 79 1014 vento: Nord SE 16.7
30 Agosto 2026 20:55 tempo osservato: Sereno Sereno 30 79 1014 vento: Nord SE 16.7
30 Agosto 2026 20:35 tempo osservato: Sereno Sereno 30 79 1014 vento: Nord E/SE 14.8
30 Agosto 2026 20:15 tempo osservato: Sereno Sereno 30 79 1013 vento: Nord E/SE 16.7
30 Agosto 2026 19:55 tempo osservato: Sereno Sereno 30 79 1013 vento: Nord E/SE 16.7
30 Agosto 2026 19:35 tempo osservato: Sereno Sereno 30 79 1013 vento: Nord E 20.3
30 Agosto 2026 19:15 tempo osservato: Sereno Sereno 31 74 1013 vento: Nord E 20.3
30 Agosto 2026 18:55 tempo osservato: Sereno Sereno 31 74 1013 vento: Nord E 18.5
30 Agosto 2026 18:35 tempo osservato: Sereno Sereno 31 74 1013 vento: Nord E 18.5
30 Agosto 2026 18:15 tempo osservato: Sereno Sereno 31 74 1013 vento: Nord E 18.5
30 Agosto 2026 17:55 tempo osservato: Sereno Sereno 31 74 1013 vento: Nord E 18.5
30 Agosto 2026 17:35 tempo osservato: Sereno Sereno 32 70 1013 vento: Nord E 18.5
30 Agosto 2026 17:15 tempo osservato: Sereno Sereno 31 70 1013 vento: Nord E 22.2
30 Agosto 2026 16:55 tempo osservato: Sereno Sereno 32 66 1013 vento: Nord E 22.2
30 Agosto 2026 16:35 tempo osservato: Sereno Sereno 31 74 1014 vento: Nord E 16.7
30 Agosto 2026 16:15 tempo osservato: Sereno Sereno 32 70 1014 vento: Nord E/SE 16.7
30 Agosto 2026 15:55 tempo osservato: Sereno Sereno 32 70 1014 vento: Nord E 18.5
30 Agosto 2026 15:35 tempo osservato: Sereno Sereno 32 66 1015 vento: Nord E/SE 18.5
30 Agosto 2026 15:15 tempo osservato: Sereno Sereno 32 70 1015 vento: Nord E/SE 16.7
30 Agosto 2026 14:55 tempo osservato: Sereno Sereno 32 70 1015 vento: Nord E/SE 18.5
30 Agosto 2026 14:35 tempo osservato: Sereno Sereno 32 70 1015 vento: Nord E/SE 16.7
30 Agosto 2026 14:15 tempo osservato: Sereno Sereno 32 70 1016 vento: Nord E/SE 14.8
30 Agosto 2026 13:55 tempo osservato: Sereno Sereno 31 74 1016 vento: Nord E/SE 13
30 Agosto 2026 13:35 tempo osservato: Sereno Sereno 31 74 1016 vento: Nord E 14.8
30 Agosto 2026 13:15 tempo osservato: Sereno Sereno 31 74 1016 vento: Nord E/SE 13
30 Agosto 2026 12:55 tempo osservato: Sereno Sereno 31 74 1017 vento: Nord SE 14.8
30 Agosto 2026 12:35 tempo osservato: Sereno Sereno 31 74 1017 vento: Nord SE 11.1
30 Agosto 2026 12:15 tempo osservato: Sereno Sereno 31 74 1017 vento: Nord E/SE 11.1
30 Agosto 2026 11:55 tempo osservato: Sereno Sereno 31 70 1017 vento: Nord S/SE 13
30 Agosto 2026 11:35 tempo osservato: Sereno Sereno 31 70 1017 vento: Nord S 13
30 Agosto 2026 11:15 tempo osservato: Sereno Sereno 30 74 1017 vento: Nord S/SE 11.1
30 Agosto 2026 10:55 tempo osservato: Sereno Sereno 30 79 1017 vento: Nord SE 9.3
30 Agosto 2026 10:35 tempo osservato: Sereno Sereno 30 79 1017 vento: Nord S/SE 9.3
30 Agosto 2026 10:15 tempo osservato: Sereno Sereno 30 79 1017 vento: Nord S/SE 9.3
30 Agosto 2026 09:55 tempo osservato: Sereno Sereno 30 79 1017 vento: Nord S/SE 9.3
30 Agosto 2026 09:35 tempo osservato: Sereno Sereno 30 79 1017 vento: Nord SE 11.1
30 Agosto 2026 09:15 tempo osservato: Sereno Sereno 29 83 1016 vento: Nord S/SE 9.3
30 Agosto 2026 08:55 tempo osservato: Sereno Sereno 29 83 1016 vento: Nord S/SE 7.4
30 Agosto 2026 08:35 tempo osservato: Sereno Sereno 29 83 1016 vento: Nord S 9.3
30 Agosto 2026 08:15 tempo osservato: Sereno Sereno 29 83 1016 vento: Nord S 9.3
30 Agosto 2026 07:55 tempo osservato: Sereno Sereno 28 88 1016 vento: Nord N 5.5
30 Agosto 2026 07:35 tempo osservato: Sereno Sereno 28 88 1016 vento: Nord N 5.5
30 Agosto 2026 07:15 tempo osservato: Sereno Sereno 28 88 1016 vento: Nord S 7.4
30 Agosto 2026 06:55 tempo osservato: Sereno Sereno 28 88 1015 vento: Nord S 7.4
30 Agosto 2026 06:35 tempo osservato: Sereno Sereno 28 88 1015 vento: Nord N 5.5
30 Agosto 2026 06:15 tempo osservato: Sereno Sereno 28 88 1015 vento: Nord S 7.4
30 Agosto 2026 05:55 tempo osservato: Sereno Sereno 28 88 1015 vento: Nord N 0
30 Agosto 2026 05:35 tempo osservato: Sereno Sereno 28 88 1015 vento: Nord S 9.3
30 Agosto 2026 05:15 tempo osservato: Sereno Sereno 28 88 1015 vento: Nord S 11.1
30 Agosto 2026 04:55 tempo osservato: Sereno Sereno 28 88 1015 vento: Nord S 13
30 Agosto 2026 04:35 tempo osservato: Nuvoloso Nuvoloso 28 88 1015 vento: Nord S 11.1
30 Agosto 2026 04:15 tempo osservato: Nuvoloso Nuvoloso 28 88 1016 vento: Nord S 11.1
30 Agosto 2026 03:55 tempo osservato: Nuvoloso Nuvoloso 28 88 1016 vento: Nord S 9.3
30 Agosto 2026 03:35 tempo osservato: Sereno Sereno 28 88 1015 vento: Nord S 9.3
30 Agosto 2026 03:15 tempo osservato: Sereno Sereno 28 88 1015 vento: Nord S/SE 7.4
30 Agosto 2026 02:55 tempo osservato: Sereno Sereno 28 88 1016 vento: Nord S/SE 7.4
30 Agosto 2026 02:35 tempo osservato: Sereno Sereno 28 83 1016 vento: Nord S/SE 9.3
30 Agosto 2026 02:15 tempo osservato: Sereno Sereno 28 83 1016 vento: Nord S/SE 9.3
30 Agosto 2026 01:55 tempo osservato: Sereno Sereno 28 83 1016 vento: Nord S/SE 9.3
30 Agosto 2026 01:35 tempo osservato: Sereno Sereno 28 88 1016 vento: Nord S/SE 9.3